Alajuela, Costa Rica

4:12 PM CST on October 20, 2017 (GMT -0600)
Alajuela

Weather History for 78762 - October, 2012

Change the Weather History Date:

Sunday, October 7, 2012

  Actual Average Record
Temperature  
Mean Temperature 72 °F -  
Max Temperature 80 °F 78 °F - ()
Min Temperature 63 °F 64 °F - ()
Cooling Degree Days 6    
Growing Degree Days 22 (Base 50)    
Moisture  
Dew Point 64 °F    
Average Humidity 79    
Maximum Humidity 94    
Minimum Humidity 50    
Precipitation  
Precipitation 0.00 in 0.37 in - ()
Sea Level Pressure  
Sea Level Pressure 29.93 in    
Wind  
Wind Speed 5 mph ()    
Max Wind Speed 10 mph    
Max Gust Speed -    
Visibility 7.2 miles    
Events Fog , Rain    
T = Trace of Precipitation, MM = Missing Value Source: Averaged Metar Reports

Daily Weather History Graph

Daily Weather History Graph

Search for Another Location

Airport or City:

Trip Planner

Search our weather history database for the weather conditions in past years. The results will help you decide how hot, cold, wet, or windy it might be!

Date:

Astronomy

Oct. 07, 2012 Rise Set
Actual Time 5:25 AM CST 5:23 PM CST
Civil Twilight 5:04 AM CST 5:44 PM CST
Nautical Twilight 4:39 AM CST 6:09 PM CST
Astronomical Twilight 4:15 AM CST 6:33 PM CST
Moon 11:14 PM CST (10/7) 11:18 AM CST (10/7)
Length of Visible Light 12h 40m
Length of Day
11h 58m
Waning Gibbous, 55% of the Moon is Illuminated
Oct 7
Waning Gibbous
Oct 8
Last Quarter
Oct 15
New
Oct 21
First Quarter
Oct 29
Full

Hourly Weather History & Observations

Time (CST) Temp. Heat Index Dew Point Humidity Pressure Visibility Wind Dir Wind Speed Gust Speed Precip Events Conditions
12:00 AM 70 °F - 67 °F 88% 29.80 in 2 mi Calm Calm - -   Mist
12:00 AM 66.2 °F - 64.4 °F 94% 29.98 in 6.2 mi ENE 3.5 mph - N/A Fog Mostly Cloudy
1:00 AM 66.2 °F - 62.6 °F 88% 29.94 in - NE 4.6 mph - N/A   Clear
2:00 AM 64.4 °F - 60.8 °F 88% 29.92 in - ENE 5.8 mph - N/A   Clear
3:00 AM 64 °F - 60 °F 84% 29.81 in 12 mi NE 3.5 mph - -   Clear
3:00 AM 64.4 °F - 60.8 °F 88% 29.91 in - NE 3.5 mph - N/A   Clear
4:00 AM 64.4 °F - 60.8 °F 88% 29.93 in - ENE 6.9 mph - N/A   Clear
5:00 AM 66.2 °F - 60.8 °F 83% 29.94 in - ENE 3.5 mph - N/A   Clear
6:00 AM 66 °F - 60 °F 76% 29.82 in 12 mi ENE 4.6 mph - -   Clear
6:00 AM 66.2 °F - 60.8 °F 83% 29.95 in - ENE 4.6 mph - N/A   Clear
7:00 AM 71.6 °F - 62.6 °F 73% 29.97 in - East 4.6 mph - N/A   Clear
8:00 AM 75.2 °F - 62.6 °F 65% 29.99 in - ESE 8.1 mph - N/A   Clear
9:00 AM 78 °F - 63 °F 50% 29.81 in 12 mi ESE 6.9 mph - -   Clear
9:00 AM 78.8 °F - 62.6 °F 57% 29.98 in - ESE 6.9 mph - N/A   Clear
10:00 AM 80.6 °F 81.5 °F 60.8 °F 51% 30.00 in 6.2 mi SE 6.9 mph - N/A   Mostly Cloudy
10:16 AM 75.2 °F - 66.2 °F 73% 30.00 in 6.2 mi WSW 10.4 mph - N/A   Mostly Cloudy
11:00 AM 75.2 °F - 66.2 °F 73% 29.99 in 6.2 mi WSW 9.2 mph - N/A   Mostly Cloudy
12:00 PM 76 °F - 66 °F 65% 29.82 in 12 mi WSW 8.1 mph - -   Overcast
12:00 PM 77.0 °F - 66.2 °F 69% 29.97 in 6.2 mi WSW 8.1 mph - N/A   Mostly Cloudy
1:00 PM 77.0 °F - 68.0 °F 74% 29.94 in 6.2 mi WSW 10.4 mph - N/A   Mostly Cloudy
2:00 PM 75.2 °F - 68.0 °F 78% 29.93 in 6.2 mi WSW 10.4 mph - N/A   Scattered Clouds
3:00 PM 86 °F - 73 °F 58% 29.77 in 9 mi NW 4.6 mph - -   Haze
3:00 PM 71.6 °F - 68.0 °F 88% 29.92 in 6.2 mi WSW 9.2 mph - N/A   Mostly Cloudy
4:00 PM 71.6 °F - 68.0 °F 88% 29.93 in 6.2 mi SW 8.1 mph - N/A Rain Rain Showers
5:00 PM 69.8 °F - 68.0 °F 94% 29.95 in 5.6 mi West 9.2 mph - N/A Rain Rain Showers
6:00 PM 69 °F - 66 °F 89% 29.86 in 9 mi WSW 6.9 mph - -   Overcast
6:00 PM 69.8 °F - 66.2 °F 88% 29.97 in 6.2 mi WSW 6.9 mph - N/A   Mostly Cloudy
7:00 PM 68.0 °F - 66.2 °F 94% 30.00 in 6.2 mi WSW 6.9 mph - N/A   Mostly Cloudy
8:00 PM 68.0 °F - 66.2 °F 94% 30.03 in 5.0 mi WSW 5.8 mph - N/A Fog Light Drizzle
9:00 PM 68.0 °F - 57.2 °F 68% 30.04 in 6.2 mi NW 5.8 mph - N/A   Mostly Cloudy
10:00 PM 68.0 °F - 66.2 °F 94% 30.02 in 6.2 mi NNE 2.3 mph - N/A   Scattered Clouds
11:00 PM 68.0 °F - 64.4 °F 88% 30.00 in 6.2 mi South 3.5 mph - N/A   Scattered Clouds